Location: Gold Fund Mine
(38.3819°N, 119.0996°W)
Time: 23:38:49
(UTC+00:00)

METEOR-M - Pass Details

Date: 18 September 2020
Orbit: 816 x 819 km, 98.5° (Epoch: 20 October)

Event Time Altitude Azimuth Distance (km) Brightness Sun altitude
Rises 13:04:20 0° 9° (N) 3,357 7.6 -8.0°
Reaches altitude 10° 13:06:43 10° 6° (N) 2,420 6.8 -7.6°
Maximum altitude 13:11:59 62° 287° (WNW) 917 4.2 -6.5°
Drops below altitude 10° 13:17:14 10° 207° (SSW) 2,403 6.3 -5.5°
Sets 13:19:35 0° 204° (SSW) 3,331 7.0 -5.1°
